,,Stat6,,Stat2,,Stat8,,Stat9,,Stat10,,Wind1,,Wind1,
time,status,PA1M_AVG,status,PR1M_SUM,status,RH1M_AVG,status,SR1M_AVG,status,TA1M_AVG,status,W1dAve1m,status,W1sAve1m,
2005-02-24, 00:00:00,VALID,919.503,VALID,0,VALID,89.1395,VALID,-0.0339617,VALID,20.7689,VALID,48,VALID,0.729421,
2005-02-24, 00:01:00,VALID,919.486,VALID,0,VALID,89.1306,VALID,-0.0169808,VALID,20.7888,VALID,58,VALID,0.822222,
2005-02-24, 00:02:00,VALID,919.467,VALID,0,VALID,89.301,VALID,0,VALID,20.7691,VALID,58,VALID,1.00852,
2005-02-24, 00:03:00,VALID,919.441,VALID,0,VALID,89.4141,VALID,-0.0169808,VALID,20.7498,VALID,58,VALID,0.951601,
2005-02-24, 00:04:00,VALID,919.411,VALID,0,VALID,89.3785,VALID,-0.0169808,VALID,20.7376,VALID,58,VALID,0.942587,
2005-02-24, 00:05:00,VALID,919.385,VALID,0,VALID,89.7168,VALID,-0.0339617,VALID,20.6825,VALID,58,VALID,0.90282,
2005-02-24, 00:06:00,VALID,919.362,VALID,0,VALID,89.9673,VALID,-0.0339617,VALID,20.6588,VALID,58,VALID,0.847834,
2005-02-24, 00:07:00,VALID,919.353,VALID,0,VALID,89.7155,VALID,0,VALID,20.7145,VALID,66,VALID,0.848133,
2005-02-24, 00:08:00,VALID,919.338,VALID,0,VALID,89.2565,VALID,-0.0169808,VALID,20.8022,VALID,93,VALID,0.875744,
2005-02-24, 00:09:00,VALID,919.316,VALID,0,VALID,88.8852,VALID,0,VALID,20.8623,VALID,108,VALID,0.921094,
2005-02-24, 00:10:00,VALID,919.304,VALID,0,VALID,88.6003,VALID,0,VALID,20.9406,VALID,116,VALID,0.898628,
2005-02-24, 00:11:00,VALID,919.285,VALID,0,VALID,88.4109,VALID,-0.0169808,VALID,20.9888,VALID,120,VALID,0.782422,
2005-02-24, 00:12:00,VALID,919.262,VALID,0,VALID,88.2926,VALID,0,VALID,21.0208,VALID,118,VALID,0.613636,
2005-02-24, 00:13:00,VALID,919.251,VALID,0,VALID,88.2481,VALID,-0.0169808,VALID,21.044,VALID,117,VALID,0.676197,
2005-02-24, 00:14:00,VALID,919.235,VALID,0,VALID,88.2697,VALID,-0.0169808,VALID,21.0539,VALID,116,VALID,0.722284,
2005-02-24, 00:15:00,VALID,919.22,VALID,0,VALID,88.2252,VALID,-0.0169808,VALID,21.0469,VALID,116,VALID,0.74814,
2005-02-24, 00:16:00,VALID,919.202,VALID,0,VALID,88.1998,VALID,0,VALID,21.0596,VALID,116,VALID,0.690168,
2005-02-24, 00:17:00,VALID,919.199,VALID,0,VALID,88.2341,VALID,0,VALID,21.0598,VALID,116,VALID,0.468568,
2005-02-24, 00:18:00,VALID,919.182,VALID,0,VALID,88.332,VALID,0,VALID,21.0507,VALID,116,VALID,0.395461,
2005-02-24, 00:19:00,VALID,919.167,VALID,0,VALID,88.51,VALID,-0.0169808,VALID,21.0248,VALID,116,VALID,0.574558,
2005-02-24, 00:20:00,VALID,919.152,VALID,0,VALID,88.6715,VALID,-0.0339617,VALID,21.0117,VALID,118,VALID,0.574124,
2005-02-24, 00:21:00,VALID,919.134,VALID,0,VALID,88.7097,VALID,-0.0169808,VALID,21.0084,VALID,118,VALID,0.571987,
2005-02-24, 00:22:00,VALID,919.114,VALID,0,VALID,88.6919,VALID,-0.0169808,VALID,21.0181,VALID,118,VALID,0.502344,
2005-02-24, 00:23:00,VALID,919.108,VALID,0,VALID,88.7097,VALID,-0.0339617,VALID,21.0278,VALID,118,VALID,0.530061,
2005-02-24, 00:24:00,VALID,919.097,VALID,0,VALID,88.8699,VALID,-0.0169808,VALID,21.0275,VALID,118,VALID,0.415153,
2005-02-24, 00:25:00,VALID,919.084,VALID,0,VALID,88.9894,VALID,-0.0169808,VALID,21.0251,VALID,118,VALID,0.282031,
2005-02-24, 00:26:00,VALID,919.083,VALID,0,VALID,89.3976,VALID,-0.0169808,VALID,20.996,VALID,118,VALID,0.396205,
2005-02-24, 00:27:00,VALID,919.098,VALID,0,VALID,89.3925,VALID,-0.0339617,VALID,20.9699,VALID,118,VALID,0.518787,
2005-02-24, 00:28:00,VALID,919.09,VALID,0,VALID,89.5019,VALID,-0.0169808,VALID,20.925,VALID,107,VALID,0.601017,
2005-02-24, 00:29:00,VALID,919.1,VALID,0,VALID,89.7575,VALID,-0.0169808,VALID,20.8604,VALID,92,VALID,0.587695,
2005-02-24, 00:30:00,VALID,919.108,VALID,0,VALID,89.9698,VALID,-0.0169808,VALID,20.799,VALID,85,VALID,0.746271,
2005-02-24, 00:31:00,VALID,919.122,VALID,0,VALID,90.097,VALID,-0.0339617,VALID,20.7177,VALID,74,VALID,0.83893,
2005-02-24, 00:32:00,VALID,919.116,VALID,0,VALID,91.0011,VALID,0,VALID,20.6206,VALID,86,VALID,1.03609,
2005-02-24, 00:33:00,VALID,919.123,VALID,0,VALID,91.6153,VALID,-0.0169808,VALID,20.5659,VALID,85,VALID,1.07315,
2005-02-24, 00:34:00,VALID,919.117,VALID,0,VALID,92.1023,VALID,-0.0509425,VALID,20.5374,VALID,96,VALID,1.04776,
2005-02-24, 00:35:00,VALID,919.115,VALID,0,VALID,92.2562,VALID,-0.0169808,VALID,20.4986,VALID,104,VALID,0.829942,
2005-02-24, 00:36:00,VALID,919.104,VALID,0,VALID,92.4406,VALID,-0.0339617,VALID,20.4631,VALID,101,VALID,0.924132,
2005-02-24, 00:37:00,VALID,919.099,VALID,0,VALID,92.4813,VALID,-0.0679233,VALID,20.4335,VALID,107,VALID,0.717988,
2005-02-24, 00:38:00,VALID,919.079,VALID,0,VALID,92.5754,VALID,-0.0679233,VALID,20.4042,VALID,111,VALID,0.672602,
2005-02-24, 00:39:00,VALID,919.063,VALID,0,VALID,92.7445,VALID,-0.0679233,VALID,20.3856,VALID,120,VALID,0.529433,
2005-02-24, 00:40:00,VALID,919.027,VALID,0,VALID,93.0191,VALID,-0.0849042,VALID,20.3627,VALID,123,VALID,0.644709,
2005-02-24, 00:41:00,VALID,919.004,VALID,0,VALID,93.2607,VALID,-0.0849042,VALID,20.3506,VALID,126,VALID,0.692073,
2005-02-24, 00:42:00,VALID,918.98,VALID,0,VALID,93.3917,VALID,-0.0849042,VALID,20.3277,VALID,129,VALID,0.625372,
2005-02-24, 00:43:00,VALID,918.965,VALID,0,VALID,93.613,VALID,-0.0849042,VALID,20.3046,VALID,125,VALID,0.587984,
2005-02-24, 00:44:00,VALID,918.947,VALID,0,VALID,93.688,VALID,-0.0849042,VALID,20.2952,VALID,110,VALID,0.669829,
2005-02-24, 00:45:00,VALID,918.932,VALID,0,VALID,93.6562,VALID,-0.101885,VALID,20.286,VALID,110,VALID,0.690518,
2005-02-24, 00:46:00,VALID,918.919,VALID,0,VALID,93.8495,VALID,-0.0509425,VALID,20.276,VALID,117,VALID,0.671875,
2005-02-24, 00:47:00,VALID,918.909,VALID,0,VALID,93.6829,VALID,-0.0679233,VALID,20.2822,VALID,117,VALID,0.322856,
2005-02-24, 00:48:00,VALID,918.902,VALID,0,VALID,93.5202,VALID,-0.0849042,VALID,20.2822,VALID,117,VALID,0.480841,
2005-02-24, 00:49:00,VALID,918.89,VALID,0,VALID,93.5011,VALID,-0.0679233,VALID,20.2726,VALID,117,VALID,0.311612,
2005-02-24, 00:50:00,VALID,918.888,VALID,0,VALID,93.4757,VALID,-0.0849042,VALID,20.2701,VALID,117,VALID,0.385417,
2005-02-24, 00:51:00,VALID,918.883,VALID,0,VALID,93.454,VALID,-0.0679233,VALID,20.2569,VALID,117,VALID,0.519817,
2005-02-24, 00:52:00,VALID,918.876,VALID,0,VALID,93.3281,VALID,-0.101885,VALID,20.2435,VALID,117,VALID,0.704883,
2005-02-24, 00:53:00,VALID,918.863,VALID,0,VALID,93.1005,VALID,-0.0849042,VALID,20.2341,VALID,119,VALID,0.766897,
2005-02-24, 00:54:00,VALID,918.865,VALID,0,VALID,92.7508,VALID,-0.0849042,VALID,20.2641,VALID,123,VALID,0.647879,
2005-02-24, 00:55:00,VALID,918.868,VALID,0,VALID,92.5359,VALID,-0.101885,VALID,20.286,VALID,123,VALID,0.498512,
2005-02-24, 00:56:00,VALID,918.853,VALID,0,VALID,92.5029,VALID,-0.0679233,VALID,20.2795,VALID,126,VALID,0.574396,
2005-02-24, 00:57:00,VALID,918.851,VALID,0,VALID,92.3643,VALID,-0.0679233,VALID,20.2954,VALID,149,VALID,0.606213,
2005-02-24, 00:58:00,VALID,918.84,VALID,0,VALID,92.1888,VALID,-0.0849042,VALID,20.3121,VALID,145,VALID,0.608631,
2005-02-24, 00:59:00,VALID,918.853,VALID,0,VALID,92.0489,VALID,-0.101885,VALID,20.3153,VALID,126,VALID,0.661014,
2005-02-24, 01:00:00,VALID,918.847,VALID,0,VALID,91.8404,VALID,-0.0849042,VALID,20.3024,VALID,98,VALID,0.799733,
2005-02-24, 01:01:00,VALID,918.852,VALID,0,VALID,91.7666,VALID,-0.0849042,VALID,20.2927,VALID,95,VALID,0.838728,
2005-02-24, 01:02:00,VALID,918.858,VALID,0,VALID,91.5988,VALID,0.0339617,VALID,20.2946,VALID,98,VALID,0.875381,
2005-02-24, 01:03:00,VALID,918.855,VALID,0,VALID,91.3813,VALID,0.0169808,VALID,20.2944,VALID,111,VALID,1.10766,
2005-02-24, 01:04:00,VALID,918.837,VALID,0,VALID,91.1829,VALID,0.0169808,VALID,20.3103,VALID,118,VALID,0.798828,
2005-02-24, 01:05:00,VALID,918.839,VALID,0,VALID,91.2071,VALID,0,VALID,20.324,VALID,118,VALID,0.661754,
2005-02-24, 01:06:00,VALID,918.804,VALID,0,VALID,91.2376,VALID,0,VALID,20.3138,VALID,126,VALID,0.767857,
2005-02-24, 01:07:00,VALID,918.78,VALID,0,VALID,91.3762,VALID,0.0169808,VALID,20.3038,VALID,112,VALID,0.573047,
2005-02-24, 01:08:00,VALID,918.75,VALID,0,VALID,91.4144,VALID,0,VALID,20.2912,VALID,112,VALID,0.355196,
2005-02-24, 01:09:00,VALID,918.736,VALID,0,VALID,91.4869,VALID,0,VALID,20.2589,VALID,112,VALID,0.30599,
2005-02-24, 01:10:00,VALID,918.713,VALID,0,VALID,91.67,VALID,0.0339617,VALID,20.2196,VALID,112,VALID,0.550223,
2005-02-24, 01:11:00,VALID,918.694,VALID,0,VALID,91.8086,VALID,0,VALID,20.2266,VALID,112,VALID,0.436719,
2005-02-24, 01:12:00,VALID,918.668,VALID,0,VALID,91.4449,VALID,0,VALID,20.2075,VALID,112,VALID,0.103561,
2005-02-24, 01:13:00,VALID,918.65,VALID,0,VALID,91.3305,VALID,0,VALID,20.1173,VALID,112,VALID,0.0342014,
2005-02-24, 01:14:00,VALID,918.633,VALID,0,VALID,92.012,VALID,0.0339617,VALID,20.0425,VALID,112,VALID,0.305778,
2005-02-24, 01:15:00,VALID,918.63,VALID,0,VALID,92.3058,VALID,0,VALID,19.9518,VALID,112,VALID,0.224702,
2005-02-24, 01:16:00,VALID,918.61,VALID,0,VALID,92.8297,VALID,0.0169808,VALID,19.8907,VALID,112,VALID,0.374256,
2005-02-24, 01:17:00,VALID,918.601,VALID,0,VALID,93.6333,VALID,0.0509425,VALID,19.8222,VALID,96,VALID,0.706473,
2005-02-24, 01:18:00,VALID,918.595,VALID,0,VALID,94.072,VALID,0.0509425,VALID,19.8095,VALID,95,VALID,1.02096,
2005-02-24, 01:19:00,VALID,918.606,VALID,0,VALID,93.9576,VALID,0.0339617,VALID,19.8485,VALID,98,VALID,1.03199,
2005-02-24, 01:20:00,VALID,918.603,VALID,0,VALID,93.4413,VALID,0,VALID,19.9039,VALID,98,VALID,0.903525,
2005-02-24, 01:21:00,VALID,918.589,VALID,0,VALID,93.0433,VALID,0,VALID,19.9501,VALID,98,VALID,0.875178,
2005-02-24, 01:22:00,VALID,918.579,VALID,0,VALID,92.6237,VALID,0,VALID,19.9556,VALID,97,VALID,0.764258,
2005-02-24, 01:23:00,VALID,918.583,VALID,0,VALID,92.3007,VALID,0.0169808,VALID,19.965,VALID,98,VALID,0.605374,
2005-02-24, 01:24:00,VALID,918.577,VALID,0,VALID,92.054,VALID,-0.0339617,VALID,19.9819,VALID,105,VALID,0.649346,
2005-02-24, 01:25:00,VALID,918.572,VALID,0,VALID,92.0871,VALID,-0.0169808,VALID,19.9558,VALID,126,VALID,0.843559,
2005-02-24, 01:26:00,VALID,918.565,VALID,0,VALID,92.4558,VALID,0,VALID,19.897,VALID,139,VALID,0.86101,
2005-02-24, 01:27:00,VALID,918.564,VALID,0,VALID,92.6707,VALID,0.0169808,VALID,19.8753,VALID,137,VALID,0.71274,
2005-02-24, 01:28:00,VALID,918.572,VALID,0,VALID,93.0077,VALID,-0.0169808,VALID,19.8595,VALID,137,VALID,0.741071,
2005-02-24, 01:29:00,VALID,918.559,VALID,0,VALID,92.9607,VALID,0.0169808,VALID,19.8428,VALID,137,VALID,0.584223,
2005-02-24, 01:30:00,VALID,918.55,VALID,0,VALID,93.1501,VALID,0.0169808,VALID,19.8301,VALID,140,VALID,0.719295,
2005-02-24, 01:31:00,VALID,918.54,VALID,0,VALID,94.2373,VALID,-0.0169808,VALID,19.8105,VALID,139,VALID,0.789621,
2005-02-24, 01:32:00,VALID,918.528,VALID,0,VALID,94.7651,VALID,0,VALID,19.7984,VALID,139,VALID,0.808408,
2005-02-24, 01:33:00,VALID,918.529,VALID,0,VALID,95.2966,VALID,0,VALID,19.7556,VALID,141,VALID,0.963542,
2005-02-24, 01:34:00,VALID,918.534,VALID,0,VALID,95.514,VALID,-0.0169808,VALID,19.7467,VALID,141,VALID,0.71875,
2005-02-24, 01:35:00,VALID,918.53,VALID,0,VALID,95.4568,VALID,0,VALID,19.7209,VALID,142,VALID,0.628162,
2005-02-24, 01:36:00,VALID,918.531,VALID,0,VALID,95.453,VALID,-0.0169808,VALID,19.6853,VALID,139,VALID,0.773438,
2005-02-24, 01:37:00,VALID,918.531,VALID,0,VALID,95.2673,VALID,-0.101885,VALID,19.664,VALID,135,VALID,0.796701,
2005-02-24, 01:38:00,VALID,918.536,VALID,0,VALID,95.0817,VALID,-0.101885,VALID,19.661,VALID,135,VALID,0.708394,
2005-02-24, 01:39:00,VALID,918.54,VALID,0,VALID,94.8057,VALID,-0.118866,VALID,19.6446,VALID,131,VALID,0.422619,
2005-02-24, 01:40:00,VALID,918.536,VALID,0,VALID,94.6392,VALID,-0.101885,VALID,19.6414,VALID,119,VALID,0.703472,
2005-02-24, 01:41:00,VALID,918.536,VALID,0,VALID,94.5756,VALID,-0.101885,VALID,19.6287,VALID,100,VALID,0.751776,
2005-02-24, 01:42:00,VALID,918.527,VALID,0,VALID,94.8426,VALID,-0.118866,VALID,19.6222,VALID,97,VALID,0.835337,
2005-02-24, 01:43:00,VALID,918.527,VALID,0,VALID,94.8172,VALID,-0.101885,VALID,19.6188,VALID,98,VALID,0.734375,
2005-02-24, 01:44:00,VALID,918.514,VALID,0,VALID,94.5171,VALID,-0.101885,VALID,19.626,VALID,112,VALID,1.01239,
2005-02-24, 01:45:00,VALID,918.509,VALID,0,VALID,94.3416,VALID,-0.101885,VALID,19.6158,VALID,110,VALID,1.04742,
2005-02-24, 01:46:00,VALID,918.51,VALID,0,VALID,94.4446,VALID,-0.101885,VALID,19.6193,VALID,114,VALID,1.15898,
2005-02-24, 01:47:00,VALID,918.499,VALID,0,VALID,94.2005,VALID,-0.101885,VALID,19.6349,VALID,111,VALID,0.961293,
2005-02-24, 01:48:00,VALID,918.498,VALID,0,VALID,94.4243,VALID,-0.101885,VALID,19.6352,VALID,111,VALID,1.00408,
2005-02-24, 01:49:00,VALID,918.501,VALID,0,VALID,94.6176,VALID,-0.101885,VALID,19.6515,VALID,101,VALID,0.99399,
2005-02-24, 01:50:00,VALID,918.486,VALID,0,VALID,94.7104,VALID,-0.118866,VALID,19.6384,VALID,95,VALID,0.896076,
2005-02-24, 01:51:00,VALID,918.472,VALID,0,VALID,95.191,VALID,-0.0679233,VALID,19.6284,VALID,96,VALID,0.962054,
2005-02-24, 01:52:00,VALID,918.464,VALID,0,VALID,95.6119,VALID,0,VALID,19.6237,VALID,101,VALID,1.08837,
2005-02-24, 01:53:00,VALID,918.458,VALID,0,VALID,95.6247,VALID,0,VALID,19.6558,VALID,103,VALID,0.964753,
2005-02-24, 01:54:00,VALID,918.466,VALID,0,VALID,95.4568,VALID,-0.0339617,VALID,19.656,VALID,103,VALID,0.828465,
2005-02-24, 01:55:00,VALID,918.453,VALID,0,VALID,95.4021,VALID,0,VALID,19.66,VALID,103,VALID,0.77381,
2005-02-24, 01:56:00,VALID,918.467,VALID,0,VALID,95.2419,VALID,-0.0169808,VALID,19.6237,VALID,104,VALID,0.557528,
2005-02-24, 01:57:00,VALID,918.469,VALID,0,VALID,95.397,VALID,-0.0169808,VALID,19.6081,VALID,110,VALID,0.696039,
2005-02-24, 01:58:00,VALID,918.47,VALID,0,VALID,95.542,VALID,-0.0169808,VALID,19.5887,VALID,97,VALID,0.768415,
2005-02-24, 01:59:00,VALID,918.46,VALID,0,VALID,95.5954,VALID,0,VALID,19.5688,VALID,95,VALID,0.571584,
2005-02-24, 02:00:00,VALID,918.449,VALID,0,VALID,95.7213,VALID,-0.0169808,VALID,19.5527,VALID,97,VALID,0.514535,
2005-02-24, 02:01:00,VALID,918.439,VALID,0,VALID,95.9744,VALID,-0.0169808,VALID,19.547,VALID,102,VALID,0.498402,
2005-02-24, 02:02:00,VALID,918.427,VALID,0,VALID,96.1295,VALID,0,VALID,19.5244,VALID,102,VALID,0.386458,
2005-02-24, 02:03:00,VALID,918.417,VALID,0,VALID,96.3482,VALID,-0.0169808,VALID,19.501,VALID,103,VALID,0.582422,
2005-02-24, 02:04:00,VALID,918.408,VALID,0,VALID,96.4525,VALID,0.0169808,VALID,19.4851,VALID,103,VALID,0.588368,
2005-02-24, 02:05:00,VALID,918.373,VALID,0,VALID,96.5199,VALID,0,VALID,19.4658,VALID,103,VALID,0.59003,
2005-02-24, 02:06:00,VALID,918.361,VALID,0,VALID,96.8378,VALID,0,VALID,19.4533,VALID,108,VALID,0.727653,
2005-02-24, 02:07:00,VALID,918.347,VALID,0,VALID,97.0959,VALID,0,VALID,19.4663,VALID,114,VALID,0.694196,
2005-02-24, 02:08:00,VALID,918.336,VALID,0,VALID,97.0692,VALID,-0.0169808,VALID,19.4896,VALID,114,VALID,0.700195,
2005-02-24, 02:09:00,VALID,918.327,VALID,0,VALID,96.9026,VALID,-0.0169808,VALID,19.4916,VALID,114,VALID,0.497093,
2005-02-24, 02:10:00,VALID,918.315,VALID,0,VALID,96.717,VALID,0,VALID,19.4988,VALID,114,VALID,0.446162,
2005-02-24, 02:11:00,VALID,918.311,VALID,0,VALID,96.5186,VALID,-0.0509425,VALID,19.5152,VALID,114,VALID,0.190874,
2005-02-24, 02:12:00,VALID,918.31,VALID,0,VALID,96.3749,VALID,-0.0339617,VALID,19.4951,VALID,114,VALID,0.00363372,
2005-02-24, 02:13:00,VALID,918.319,VALID,0,VALID,96.3419,VALID,-0.0169808,VALID,19.4886,VALID,114,VALID,0.0262784,
2005-02-24, 02:14:00,VALID,918.311,VALID,0,VALID,96.2655,VALID,-0.0169808,VALID,19.4854,VALID,114,VALID,0,
2005-02-24, 02:15:00,VALID,918.32,VALID,0,VALID,96.1358,VALID,-0.0169808,VALID,19.4635,VALID,114,VALID,0,
2005-02-24, 02:16:00,VALID,918.314,VALID,0,VALID,96.2528,VALID,-0.0169808,VALID,19.4437,VALID,114,VALID,0,
2005-02-24, 02:17:00,VALID,918.292,VALID,0,VALID,96.2592,VALID,-0.0169808,VALID,19.4409,VALID,114,VALID,0,
2005-02-24, 02:18:00,VALID,918.297,VALID,0,VALID,95.9159,VALID,-0.0339617,VALID,19.4022,VALID,114,VALID,0.0826982,
2005-02-24, 02:19:00,VALID,918.297,VALID,0,VALID,96.2605,VALID,0,VALID,19.3436,VALID,114,VALID,0.40987,
2005-02-24, 02:20:00,VALID,918.303,VALID,0,VALID,96.4983,VALID,-0.0169808,VALID,19.3341,VALID,114,VALID,0.214753,
2005-02-24, 02:21:00,VALID,918.31,VALID,0,VALID,96.4538,VALID,-0.0169808,VALID,19.3373,VALID,114,VALID,0.0941134,
2005-02-24, 02:22:00,VALID,918.317,VALID,0,VALID,96.2045,VALID,0,VALID,19.3207,VALID,114,VALID,0.0699314,
2005-02-24, 02:23:00,VALID,918.297,VALID,0,VALID,96.0761,VALID,0,VALID,19.3115,VALID,114,VALID,0.252362,
2005-02-24, 02:24:00,VALID,918.286,VALID,0,VALID,96.3431,VALID,-0.0169808,VALID,19.3373,VALID,114,VALID,0.09375,
2005-02-24, 02:25:00,VALID,918.274,VALID,0,VALID,96.324,VALID,-0.0169808,VALID,19.3664,VALID,114,VALID,0,
2005-02-24, 02:26:00,VALID,918.248,VALID,0,VALID,96.0316,VALID,0,VALID,19.3528,VALID,114,VALID,0,
2005-02-24, 02:27:00,VALID,918.224,VALID,0,VALID,96.1778,VALID,0,VALID,19.3796,VALID,114,VALID,0,
2005-02-24, 02:28:00,VALID,918.2,VALID,0,VALID,96.0621,VALID,-0.0339617,VALID,19.392,VALID,114,VALID,0,
2005-02-24, 02:29:00,VALID,918.197,VALID,0,VALID,95.9591,VALID,-0.0169808,VALID,19.3922,VALID,114,VALID,0,
2005-02-24, 02:30:00,VALID,918.175,VALID,0,VALID,95.6221,VALID,-0.0509425,VALID,19.3796,VALID,114,VALID,0,
2005-02-24, 02:31:00,VALID,918.167,VALID,0,VALID,95.7722,VALID,0,VALID,19.357,VALID,114,VALID,0,
2005-02-24, 02:32:00,VALID,918.17,VALID,0,VALID,95.9794,VALID,-0.0339617,VALID,19.357,VALID,114,VALID,0,
2005-02-24, 02:33:00,VALID,918.163,VALID,0,VALID,95.8764,VALID,-0.0339617,VALID,19.3438,VALID,114,VALID,0.0741319,
2005-02-24, 02:34:00,VALID,918.177,VALID,0,VALID,95.7671,VALID,-0.0169808,VALID,19.3147,VALID,114,VALID,0.361151,
2005-02-24, 02:35:00,VALID,918.16,VALID,0,VALID,95.6361,VALID,0,VALID,19.2666,VALID,114,VALID,0.513889,
2005-02-24, 02:36:00,VALID,918.14,VALID,0,VALID,96.4296,VALID,0,VALID,19.2407,VALID,114,VALID,0.66915,
2005-02-24, 02:37:00,VALID,918.135,VALID,0,VALID,96.5758,VALID,0,VALID,19.2442,VALID,111,VALID,0.847222,
2005-02-24, 02:38:00,VALID,918.122,VALID,0,VALID,96.5466,VALID,-0.0169808,VALID,19.231,VALID,109,VALID,0.721768,
2005-02-24, 02:39:00,VALID,918.106,VALID,0,VALID,96.6559,VALID,-0.0339617,VALID,19.2181,VALID,109,VALID,0.612645,
2005-02-24, 02:40:00,VALID,918.088,VALID,0,VALID,96.6013,VALID,-0.0169808,VALID,19.2147,VALID,109,VALID,0.269159,
2005-02-24, 02:41:00,VALID,918.067,VALID,0,VALID,96.5199,VALID,0,VALID,19.2181,VALID,109,VALID,0.221227,
2005-02-24, 02:42:00,VALID,918.049,VALID,0,VALID,96.4766,VALID,-0.0169808,VALID,19.2179,VALID,109,VALID,0.048473,
2005-02-24, 02:43:00,VALID,918.024,VALID,0,VALID,95.3475,VALID,-0.0169808,VALID,19.1667,VALID,109,VALID,0,
2005-02-24, 02:44:00,VALID,917.987,VALID,0,VALID,94.1674,VALID,-0.0509425,VALID,19.0055,VALID,93,VALID,0.459666,
2005-02-24, 02:45:00,VALID,917.985,VALID,0,VALID,94.9431,VALID,-0.0679233,VALID,18.8761,VALID,80,VALID,0.476953,
2005-02-24, 02:46:00,VALID,917.965,VALID,0,VALID,96.0468,VALID,-0.0169808,VALID,18.8081,VALID,80,VALID,0.60625,
2005-02-24, 02:47:00,VALID,917.957,VALID,0,VALID,96.9395,VALID,-0.0169808,VALID,18.8019,VALID,80,VALID,0.633956,
2005-02-24, 02:48:00,VALID,917.956,VALID,0,VALID,97.2307,VALID,-0.0509425,VALID,18.7763,VALID,80,VALID,0.664634,
2005-02-24, 02:49:00,VALID,917.951,VALID,0,VALID,97.4354,VALID,-0.0339617,VALID,18.7502,VALID,80,VALID,0.685938,
2005-02-24, 02:50:00,VALID,917.947,VALID,0,VALID,97.8818,VALID,-0.0339617,VALID,18.7537,VALID,80,VALID,0.638393,
2005-02-24, 02:51:00,VALID,917.933,VALID,0,VALID,97.8296,VALID,-0.0169808,VALID,18.7477,VALID,80,VALID,0.648983,
2005-02-24, 02:52:00,VALID,917.923,VALID,0,VALID,98.0534,VALID,-0.0679233,VALID,18.7378,VALID,80,VALID,0.685976,
2005-02-24, 02:53:00,VALID,917.901,VALID,0,VALID,98.2543,VALID,-0.0339617,VALID,18.7447,VALID,79,VALID,0.710547,
2005-02-24, 02:54:00,VALID,917.89,VALID,0,VALID,97.897,VALID,-0.0509425,VALID,18.6857,VALID,75,VALID,0.674419,
2005-02-24, 02:55:00,VALID,917.871,VALID,0,VALID,98.1882,VALID,-0.0679233,VALID,18.6573,VALID,75,VALID,0.684896,
2005-02-24, 02:56:00,VALID,917.86,VALID,0,VALID,98.7185,VALID,-0.0679233,VALID,18.67,VALID,75,VALID,0.700335,
2005-02-24, 02:57:00,VALID,917.867,VALID,0,VALID,99.0593,VALID,-0.101885,VALID,18.7187,VALID,75,VALID,0.624273,
2005-02-24, 02:58:00,VALID,917.846,VALID,0,VALID,98.8647,VALID,-0.0679233,VALID,18.7353,VALID,75,VALID,0.399148,
2005-02-24, 02:59:00,VALID,917.855,VALID,0,VALID,98.6435,VALID,-0.0679233,VALID,18.703,VALID,75,VALID,0.428472,
2005-02-24, 03:00:00,VALID,917.835,VALID,0,VALID,98.4921,VALID,-0.0339617,VALID,18.6536,VALID,107,VALID,0.834821,
2005-02-24, 03:01:00,VALID,917.824,VALID,0,VALID,98.4209,VALID,-0.0339617,VALID,18.6119,VALID,113,VALID,0.613991,
2005-02-24, 03:02:00,VALID,917.818,VALID,0,VALID,98.3383,VALID,-0.0509425,VALID,18.557,VALID,113,VALID,0.598895,
2005-02-24, 03:03:00,VALID,917.801,VALID,0,VALID,98.6829,VALID,-0.0339617,VALID,18.5409,VALID,112,VALID,0.783558,
2005-02-24, 03:04:00,VALID,917.805,VALID,0,VALID,98.9881,VALID,-0.0169808,VALID,18.5478,VALID,105,VALID,0.885417,
2005-02-24, 03:05:00,VALID,917.797,VALID,0,VALID,99.2017,VALID,-0.0679233,VALID,18.5413,VALID,105,VALID,0.895531,
2005-02-24, 03:06:00,VALID,917.813,VALID,0,VALID,99.2615,VALID,-0.0339617,VALID,18.5379,VALID,106,VALID,0.832031,
2005-02-24, 03:07:00,VALID,917.813,VALID,0,VALID,99.3492,VALID,0,VALID,18.5243,VALID,107,VALID,0.732922,
2005-02-24, 03:08:00,VALID,917.818,VALID,0,VALID,99.5361,VALID,0,VALID,18.5247,VALID,119,VALID,0.904576,
2005-02-24, 03:09:00,VALID,917.811,VALID,0,VALID,99.7408,VALID,0,VALID,18.5605,VALID,123,VALID,0.922783,
2005-02-24, 03:10:01,VALID,917.796,VALID,0,VALID,99.8502,VALID,-0.0169808,VALID,18.5796,VALID,128,VALID,0.712426,
2005-02-24, 03:11:01,VALID,917.775,VALID,0,VALID,99.7726,VALID,0,VALID,18.5761,VALID,123,VALID,0.815341,
2005-02-24, 03:12:00,VALID,917.75,VALID,0,VALID,99.7854,VALID,-0.0169808,VALID,18.5893,VALID,110,VALID,0.80923,
2005-02-24, 03:13:01,VALID,917.722,VALID,0,VALID,99.7281,VALID,0,VALID,18.5927,VALID,106,VALID,0.95191,
2005-02-24, 03:14:00,VALID,917.706,VALID,0,VALID,99.5565,VALID,0,VALID,18.5704,VALID,108,VALID,1.09302,
2005-02-24, 03:15:00,VALID,917.68,VALID,0,VALID,99.4204,VALID,-0.0169808,VALID,18.5704,VALID,106,VALID,0.988459,
2005-02-24, 03:16:01,VALID,917.669,VALID,0,VALID,99.1737,VALID,0,VALID,18.5734,VALID,115,VALID,0.942361,
2005-02-24, 03:17:01,VALID,917.665,VALID,0,VALID,98.941,VALID,-0.0169808,VALID,18.5768,VALID,121,VALID,0.685764,
2005-02-24, 03:18:00,VALID,917.667,VALID,0,VALID,98.707,VALID,-0.0169808,VALID,18.5766,VALID,118,VALID,0.620999,
2005-02-24, 03:19:00,VALID,917.669,VALID,0,VALID,98.501,VALID,-0.0169808,VALID,18.5865,VALID,114,VALID,0.563072,
2005-02-24, 03:20:00,VALID,917.673,VALID,0,VALID,98.3179,VALID,0,VALID,18.5863,VALID,112,VALID,0.65816,
2005-02-24, 03:21:01,VALID,917.665,VALID,0,VALID,98.1501,VALID,0,VALID,18.5766,VALID,112,VALID,0.504001,
2005-02-24, 03:22:01,VALID,917.673,VALID,0,VALID,98.0038,VALID,0,VALID,18.557,VALID,112,VALID,0.545351,
2005-02-24, 03:23:00,VALID,917.661,VALID,0,VALID,97.9136,VALID,-0.0169808,VALID,18.5602,VALID,112,VALID,0.59446,
2005-02-24, 03:24:00,VALID,917.643,VALID,0,VALID,97.7991,VALID,-0.0169808,VALID,18.5639,VALID,112,VALID,0.601753,
2005-02-24, 03:25:01,VALID,917.625,VALID,0,VALID,97.7749,VALID,-0.0339617,VALID,18.5704,VALID,111,VALID,0.863477,
2005-02-24, 03:26:01,VALID,917.62,VALID,0,VALID,97.6503,VALID,0,VALID,18.5928,VALID,110,VALID,0.741406,
2005-02-24, 03:27:00,VALID,917.607,VALID,0,VALID,97.4837,VALID,0,VALID,18.6183,VALID,111,VALID,0.874826,
2005-02-24, 03:28:00,VALID,917.585,VALID,0,VALID,97.3451,VALID,-0.0169808,VALID,18.6442,VALID,113,VALID,0.800977,
2005-02-24, 03:29:00,VALID,917.577,VALID,0,VALID,97.1557,VALID,0,VALID,18.6571,VALID,113,VALID,0.572545,
2005-02-24, 03:30:01,VALID,917.555,VALID,0,VALID,97.1163,VALID,0,VALID,18.6675,VALID,113,VALID,0.804297,
2005-02-24, 03:31:00,VALID,917.538,VALID,0,VALID,97.1646,VALID,0,VALID,18.6767,VALID,114,VALID,0.632241,
2005-02-24, 03:32:00,VALID,917.513,VALID,0,VALID,97.148,VALID,0,VALID,18.6931,VALID,114,VALID,0.598785,
2005-02-24, 03:33:00,VALID,917.501,VALID,0,VALID,97.1353,VALID,0,VALID,18.7027,VALID,114,VALID,0.575462,